weather station
Area: 11014 km2
The highest point: Tok (865 m.s.l.)
Total stations: 47
Stations online: 47
Stations offline: 0
Current weather
8°C

Meteorological map - weather stations in Středočeský

. The meteorological maps show weather information from WARIO weather stations

Weather stations Středočeský

 UpdatesNameStatusTemperatureHumidityWind speedWind direction
28.9.2020 21:45Barochov7.3 °C97.5 %1.4 m/s SW
28.9.2020 21:45Beroun7.6 °C100.0 %1.5 m/s W
28.9.2020 21:46Bořanovice8.1 °C88.3 %0.9 m/s NW
28.9.2020 21:45Jílové u Prahy - Borek7.7 °C90.5 %0.0 m/s NE
28.9.2020 21:45Rakovník8.5 °C100.0 %0.0 m/s W
28.9.2020 21:46Králův Dvůr7.8 °C100.0 %1.9 m/s SW
28.9.2020 21:46Chotětov9.9 °C100.0 %0.0 m/s W
28.9.2020 21:45Dobřejovice7.2 °C100.0 %1.0 m/s SW
28.9.2020 21:45Dolní Břežany7.0 °C96.3 %3.5 m/s NE
28.9.2020 21:46Dolní Jirčany6.6 °C100.0 %1.6 m/s SW
28.9.2020 21:46Hovorčovice8.5 °C99.8 %0.7 m/s SW
28.9.2020 21:45Sedlčany7.3 °C100.0 %0.0 m/s E
28.9.2020 21:45Kojetice9.4 °C100.0 %1.5 m/s NW
28.9.2020 21:45Krásná Hora nad Vltavou7.0 °C100.0 %0.0 m/s SW
28.9.2020 21:46Květnice7.9 °C97.6 %1.5 m/s NE
28.9.2020 21:46Libeř8.3 °C100.0 %0.0 m/s SW
28.9.2020 21:46Zeleneč8.0 °C100.0 %1.4 m/s SW
28.9.2020 21:45Jince7.4 °C99.3 %1.0 m/s NW
28.9.2020 21:46Dolní Jirčany6.8 °C100.0 %0.9 m/s E
28.9.2020 21:45Cetyně6.5 °C96.1 %2.2 m/s SW
28.9.2020 21:45Olešná6.8 °C97.2 %0.0 m/s SW
28.9.2020 21:46Srby7.5 °C100.0 %0.0 m/s W
28.9.2020 21:46Kralupy nad Vltavou9.6 °C97.2 %0.0 m/s SW
28.9.2020 21:45Mrač7.7 °C100.0 %0.6 m/s NW
28.9.2020 21:46Velvary10.1 °C86.8 %1.4 m/s SW
28.9.2020 21:45Mladá Boleslav9.9 °C100.0 %0.0 m/s N
28.9.2020 21:46Líbeznice8.2 °C98.3 %2.2 m/s W
28.9.2020 21:46Mšecké Žehrovice6.6 °C100.0 %1.4 m/s NW
28.9.2020 21:46Odolena voda8.5 °C100.0 %2.2 m/s W
28.9.2020 21:45Orlov6.4 °C97.3 %1.7 m/s W
28.9.2020 21:46Ostrá8.9 °C95.6 %0.8 m/s N
28.9.2020 21:45Petrovice6.9 °C100.0 %0.0 m/s SW
28.9.2020 21:45Suchodol7.0 °C100.0 %1.5 m/s SW
28.9.2020 21:46Říčany7.2 °C100.0 %1.0 m/s S
28.9.2020 21:46Semice8.9 °C100.0 %0.6 m/s SE
28.9.2020 21:45Slaný7.9 °C100.0 %0.0 m/s SE
28.9.2020 21:46Svojetice6.3 °C100.0 %2.4 m/s W
28.9.2020 21:45Roztoky8.7 °C97.9 %0.0 m/s NE
28.9.2020 21:45Toušice8.2 °C96.6 %0.0 m/s N
28.9.2020 21:46Třebsko6.3 °C100.0 %1.6 m/s W
28.9.2020 21:46Srby7.6 °C100.0 %0.0 m/s W
28.9.2020 21:46Unhošť7.6 °C99.7 %0.0 m/s S
28.9.2020 21:45Vrbčany8.5 °C100.0 %0.6 m/s W
28.9.2020 21:45Všešímy6.8 °C98.6 %1.6 m/s NE
28.9.2020 21:45Všetaty10.0 °C100.0 %0.6 m/s NW
28.9.2020 21:45Zibohlavy8.0 °C100.0 %0.0 m/s SE
28.9.2020 21:45Divišov6.4 °C99.2 %1.4 m/s SE
Email notifications
Enter your email address to subscribe to notifications about news at warioweather.com. Your email address will not be used for any purpose other than sending these emails and will not be provided to any third party. The subscription can be ended at any time.
All data are only indicative. The portal administrator has no responsibility for potentially incorrect data and related consequences. Publishing or further sharing of content from www.warioweather.com is only allowed with written consent from WANET s.r.o.